Tracking 33188 objects as of 10-Feb-2026
HD Live streaming from Space Station
objects crossing your sky now

STARLINK-31660

Track STARLINK-31660 now!
10-day predictions
STARLINK-31660 is classified as:


NORAD ID: 59642
Int'l Code: 2024-082M
Perigee: 488.2 km
Apogee: 492.3 km
Inclination: 43.0 °
Period: 94.3 minutes
Semi major axis: 6861 km
RCS: Unknown
Launch date: May 3, 2024
Source: United States (US)
Launch site: AIR FORCE EASTERN TEST RANGE (AFETR)
Your satellite tracking list
Your tracking list is empty




NASA's NSSDC Master Catalog

Two Line Element Set (TLE):
1 59642U 24082M   26040.98863419 -.00000906  00000-0 -23374-4 0  9992
2 59642  43.0058 255.8778 0002969 257.8768 102.1751 15.27565035101232
Source of the keplerian elements: AFSPC